カタログに戻る

SL-12 R/B(2)

運用中MEO
NORAD 33471·ROCKET BODY·🇷🇺 Russia

打ち上げ Dec 25, 2008 から Baikonur Cosmodrome

Loading…

次のパス (今後24時間)

TLE

最新Source: Space-Track

元期: Sep 9, 2026, 05:30 UTC

1 33471U 08067F   26252.22927872  .00000021  00000-0  00000+0 0  9997
2 33471  64.8731  66.0631 0004118 347.3731  10.6078  2.13248914137886

AllMySatでSL-12 R/B(2)をリアルタイム追跡

Download on the App Store